Stations météo

Publicité
Paris-Montsouris, France (7156): Température de l'air & dewpoint: 20.09.2017 11:00:00 - 26.09.2017 11:00:00 (CEST)Paris-Montsouris, France (7156): Température de l'air 5cm: 20.09.2017 11:00:00 - 26.09.2017 11:00:00 (CEST)Paris-Montsouris, France (7156): Température de l'air -20cm & Température de l'air -100cm: 20.09.2017 11:00:00 - 26.09.2017 11:00:00 (CEST)Paris-Montsouris, France (7156): Vitesse du vent & gusts: 20.09.2017 11:00:00 - 26.09.2017 11:00:00 (CEST)Paris-Montsouris, France (7156): Direction du vent: 20.09.2017 11:00:00 - 26.09.2017 11:00:00 (CEST)Paris-Montsouris, France (7156): reduced air pressure: 20.09.2017 11:00:00 - 26.09.2017 11:00:00 (CEST)Paris-Montsouris, France (7156): visibility: 20.09.2017 11:00:00 - 26.09.2017 11:00:00 (CEST)Paris-Montsouris, France (7156): Ensoleillement: 20.09.2017 11:00:00 - 26.09.2017 11:00:00 (CEST)Paris-Montsouris, France (7156): Quantités de précipitations: 20.09.2017 11:00:00 - 26.09.2017 11:00:00 (CEST)
Date & Time tt [°C] td [°C] tt 5cm [°C] tt -20cm [°C] tt -100cm [°C] ff [km/h] ff [knt] fx [km/h] fx [knt] dd ppp [hPa] vv [km] sd [min] rr [mm]
26.09.2017 11:00:00 16,4 13,9 - - - 4 2 11 6 SE 1021,1 20 - -
26.09.2017 10:00:00 15,4 14,1 15,1 16,3 16,3 2 1 8 5 SSE 1021,1 18 0 0,0
26.09.2017 09:00:00 15,3 14,3 14,6 16,3 16,3 3 1 7 4 SW 1020,8 6 0 0,2
26.09.2017 08:00:00 15,3 14,3 14,6 16,3 16,3 3 2 9 5 S 1020,2 6 0 0,2
26.09.2017 07:00:00 15,2 13,9 14,6 16,4 16,3 6 3 11 6 NE 1020,0 11 0 0,0
26.09.2017 06:00:00 15,2 13,9 14,5 16,4 16,3 0 0 8 4 N 1019,7 20 0 0,0
26.09.2017 05:00:00 15,1 13,5 14,3 16,4 16,3 3 2 16 8 NNE 1019,7 20 0 0,0
26.09.2017 04:00:00 15,3 14,2 14,3 16,4 16,3 7 4 15 8 ENE 1019,4 11 0 0,0
26.09.2017 03:00:00 15,8 14,5 15,2 16,4 16,4 6 4 18 10 ENE 1019,4 7 0 0,0
26.09.2017 02:00:00 16,5 15,2 15,7 16,4 16,3 9 5 18 10 NNE 1019,6 3,1 0 0,2
26.09.2017 01:00:00 17,1 15,1 - - - 5 3 11 6 NNE 1019,5 6 - 0,4
26.09.2017 00:00:00 17,1 14,6 15,9 16,5 16,4 6 3 9 5 E 1019,5 20 0 0,0
25.09.2017 23:00:00 17,1 14,7 15,8 16,5 16,3 4 2 10 5 SE 1019,4 20 0 0,0
25.09.2017 22:00:00 17,3 14,8 15,6 16,5 16,4 5 3 13 7 SSE 1019,3 20 0 0,2
25.09.2017 21:00:00 18,5 14,0 16,5 16,4 16,4 7 4 15 8 SE 1019,1 20 0 0,0
25.09.2017 20:00:00 19,1 13,5 17,3 16,4 16,4 9 5 16 9 E 1018,8 20 9 0,0
25.09.2017 19:00:00 20,5 13,7 19,9 16,3 16,4 4 2 14 8 W 1018,3 20 37 0,0
25.09.2017 18:00:00 20,3 13,5 20,0 16,2 16,4 7 4 21 11 NW 1018,0 20 0 0,0
25.09.2017 17:00:00 20,7 13,6 20,8 16,0 16,4 8 5 18 10 W 1017,9 19 0 0,0
25.09.2017 16:00:00 21,1 13,0 23,3 15,8 16,4 10 5 21 12 SW 1017,7 20 47 0,0
25.09.2017 15:00:00 21,6 13,5 23,4 15,7 16,4 8 5 19 10 SSW 1017,7 20 13 0,0
25.09.2017 14:00:00 20,4 12,9 21,5 15,5 16,4 5 3 13 7 S 1017,7 20 23 0,0
25.09.2017 13:00:00 19,2 12,7 20,2 15,4 16,4 4 2 13 7 SSE 1018,0 20 0 0,0
25.09.2017 12:00:00 18,1 11,2 19,2 15,4 16,4 6 3 16 9 S 1018,0 20 0 0,0
25.09.2017 11:00:00 17,1 11,1 16,3 15,3 16,4 6 4 15 8 ESE 1017,8 20 0 0,0
25.09.2017 10:00:00 15,9 10,4 16,2 15,3 16,4 7 4 19 10 SSE 1017,9 20 0 0,0
25.09.2017 09:00:00 15,7 10,7 14,4 15,4 16,4 8 5 23 12 SSE 1017,8 20 22 0,0
25.09.2017 08:00:00 15,2 10,2 13,7 15,4 16,4 11 6 24 13 SE 1017,4 20 0 0,0
25.09.2017 07:00:00 15,1 10,1 13,5 15,4 16,4 10 6 24 13 SE 1017,4 20 0 0,0
25.09.2017 06:00:00 15,3 10,3 13,5 15,4 16,4 11 6 21 12 SE 1017,4 20 0 0,0
25.09.2017 05:00:00 15,4 10,4 13,3 15,5 16,4 9 5 19 10 SSE 1017,8 20 0 0,0
25.09.2017 04:00:00 15,7 10,9 13,5 15,5 16,4 5 3 18 10 SSE 1018,1 20 0 0,0
25.09.2017 03:00:00 16,2 10,5 13,5 15,5 16,4 7 4 22 12 SSE 1018,5 20 0 0,0
25.09.2017 02:00:00 16,6 10,4 13,2 15,6 16,5 10 5 21 11 SE 1018,7 20 0 0,0
25.09.2017 01:00:00 17,3 10,4 14,7 15,6 16,5 9 5 22 12 ESE 1019,0 20 0 0,0
25.09.2017 00:00:00 17,7 10,6 14,7 15,6 16,5 11 6 24 13 SE 1019,4 20 0 0,0
24.09.2017 23:00:00 17,5 10,4 14,5 15,6 16,4 7 4 18 10 ESE 1019,3 20 0 0,0
24.09.2017 22:00:00 18,1 10,9 13,9 15,6 16,4 9 5 21 11 SE 1019,3 20 0 0,0
24.09.2017 21:00:00 18,2 10,8 14,4 15,6 16,5 10 5 17 9 ESE 1019,3 20 0 0,0
24.09.2017 20:00:00 19,0 9,2 14,7 15,6 16,5 6 3 16 9 SE 1019,2 20 0 0,0
24.09.2017 19:00:00 20,2 9,4 17,2 15,5 16,5 6 3 20 11 SSE 1019,4 20 33 0,0
24.09.2017 18:00:00 22,3 9,8 21,3 15,4 16,5 10 5 23 12 SSE 1019,1 20 56 0,0
24.09.2017 17:00:00 22,3 10,8 21,6 15,2 16,5 9 5 27 14 SE 1019,1 20 51 0,0
24.09.2017 16:00:00 22,9 10,3 22,3 15,0 16,5 9 5 25 13 SE 1019,4 20 60 0,0
24.09.2017 15:00:00 22,4 9,5 28,2 14,8 16,5 8 4 28 15 SE 1019,6 20 60 0,0
24.09.2017 14:00:00 22,5 11,6 24,9 14,6 16,5 10 5 25 13 S 1020,0 20 60 0,0
24.09.2017 13:00:00 20,2 11,9 17,7 14,6 16,5 7 4 16 9 SE 1020,5 20 60 0,0
24.09.2017 12:00:00 18,1 11,4 17,6 14,6 16,5 7 4 15 8 SE 1020,9 20 60 0,0
24.09.2017 11:00:00 17,7 11,9 13,0 14,6 16,5 5 3 15 8 S 1020,9 20 60 0,0
24.09.2017 10:00:00 13,3 10,8 9,2 14,6 16,5 4 2 15 8 SSE 1021,1 19 60 0,0
24.09.2017 09:00:00 11,6 10,3 8,0 14,7 16,5 5 3 8 4 SE 1020,7 14 0 0,0
24.09.2017 08:00:00 11,5 10,2 8,0 14,7 16,5 3 2 8 4 S 1020,8 15 0 0,0
24.09.2017 07:00:00 11,6 10,3 7,8 14,8 16,5 4 2 7 4 SE 1020,2 16 0 0,0
24.09.2017 06:00:00 11,8 10,2 8,6 14,9 16,5 4 2 7 4 SE 1020,2 19 0 0,0
24.09.2017 05:00:00 11,8 10,2 8,3 15,0 16,5 3 1 6 3 SSE 1020,5 19 0 0,0
24.09.2017 04:00:00 12,1 10,3 7,4 15,0 16,5 4 2 8 4 SSE 1020,6 19 0 0,0
24.09.2017 03:00:00 12,2 10,4 7,4 15,1 16,5 4 2 6 3 SE 1021,0 20 0 0,0
24.09.2017 02:00:00 12,8 10,2 9,1 15,2 16,5 4 2 9 5 S 1020,9 20 0 0,0
24.09.2017 01:00:00 13,8 10,4 9,8 15,3 16,6 6 4 13 7 SE 1020,9 20 0 0,0
24.09.2017 00:00:00 14,3 10,5 10,3 15,3 16,5 4 2 8 5 SE 1021,0 20 0 0,0
23.09.2017 23:00:00 15,0 10,6 10,4 15,4 16,5 5 3 17 9 E 1021,2 20 0 0,0
23.09.2017 22:00:00 15,3 10,3 10,8 15,4 16,5 3 2 9 5 SE 1021,2 20 0 0,0
23.09.2017 21:00:00 16,2 10,3 12,3 15,4 16,6 4 2 9 5 SE 1021,1 20 0 0,0
23.09.2017 20:00:00 16,7 10,1 12,0 15,4 16,6 5 3 18 10 SSE 1020,8 20 0 0,0
23.09.2017 19:00:00 17,7 9,8 14,2 15,4 16,6 7 4 19 11 SE 1020,7 20 19 0,0
23.09.2017 18:00:00 20,1 10,5 17,5 15,2 16,6 8 5 17 9 SE 1020,7 20 60 0,0
23.09.2017 17:00:00 19,7 10,4 18,4 15,1 16,6 5 3 18 10 S 1021,1 19 53 0,0
23.09.2017 16:00:00 20,0 9,8 20,3 14,9 16,6 6 4 18 10 SSE 1021,4 20 51 0,0
23.09.2017 15:00:00 20,1 9,6 23,8 14,7 16,6 5 3 18 10 E 1022,2 20 45 0,0
23.09.2017 14:00:00 20,0 11,5 23,0 14,6 16,6 5 3 18 10 ESE 1022,5 18 52 0,0
23.09.2017 13:00:00 18,4 11,2 18,5 14,5 16,6 6 3 14 8 E 1023,1 20 43 0,0
23.09.2017 12:00:00 17,1 11,1 18,8 14,4 16,6 5 3 15 8 SSE 1023,4 19 32 0,0
23.09.2017 11:00:00 16,9 11,2 13,6 14,5 16,6 6 4 13 7 ENE 1023,5 16 60 0,0
23.09.2017 10:00:00 13,2 10,4 9,4 14,5 16,6 5 3 10 5 ENE 1023,6 15 60 0,0
23.09.2017 09:00:00 11,2 9,8 6,3 14,6 16,6 2 1 6 3 ESE 1023,6 15 25 0,0
23.09.2017 08:00:00 10,3 9,1 5,3 14,7 16,6 2 1 5 3 N 1023,6 12 0 0,0
23.09.2017 07:00:00 10,5 9,1 5,1 14,8 16,6 4 2 6 3 NNE 1023,7 16 0 0,0
23.09.2017 06:00:00 10,5 8,9 5,3 14,9 16,7 5 3 10 6 NE 1023,7 19 0 0,0
23.09.2017 05:00:00 10,8 9,1 5,5 15,0 16,7 5 3 10 5 N 1024,0 16 0 0,0
23.09.2017 04:00:00 10,9 8,8 5,6 15,1 16,7 5 3 13 7 NE 1024,1 20 0 0,0
23.09.2017 03:00:00 11,5 9,1 5,8 15,2 16,6 8 4 16 9 NNE 1024,4 20 0 0,0
23.09.2017 02:00:00 11,7 8,9 6,0 15,3 16,7 6 3 16 9 NNE 1024,5 20 0 0,0
23.09.2017 01:00:00 12,3 8,8 6,7 15,4 16,7 7 4 16 8 N 1024,3 20 0 0,0
23.09.2017 00:00:00 13,5 8,8 7,8 15,4 16,7 7 4 20 11 NNE 1024,1 20 0 0,0
22.09.2017 23:00:00 13,6 7,6 7,2 15,5 16,7 8 5 18 10 N 1024,1 20 0 0,0
22.09.2017 22:00:00 14,3 7,8 7,5 15,6 16,7 6 3 17 9 NW 1023,7 20 0 0,0
22.09.2017 21:00:00 15,3 6,0 8,2 15,6 16,7 8 4 19 10 NNW 1023,3 20 0 0,0
22.09.2017 20:00:00 17,1 7,4 - - - 8 4 18 10 NNW 1022,6 20 - -
22.09.2017 19:00:00 18,1 7,2 13,8 15,6 16,7 5 3 17 9 W 1022,1 20 60 0,0
22.09.2017 18:00:00 20,2 8,5 16,9 15,5 16,7 4 2 18 10 W 1021,8 20 55 0,0
22.09.2017 17:00:00 18,9 10,2 17,1 15,3 16,7 4 2 19 10 WNW 1021,8 20 27 0,0
22.09.2017 16:00:00 18,8 10,1 18,7 15,2 16,7 5 3 18 10 W 1022,0 20 40 0,0
22.09.2017 15:00:00 18,2 12,6 19,6 15,1 16,7 8 4 16 9 NNW 1022,2 20 14 0,0
22.09.2017 14:00:00 17,3 12,6 17,4 15,0 16,7 7 4 19 10 NNW 1022,4 20 0 0,0
22.09.2017 13:00:00 16,5 12,6 17,9 15,0 16,8 9 5 20 11 NNW 1022,2 20 5 0,0
22.09.2017 12:00:00 15,9 13,0 16,3 14,9 16,8 9 5 18 10 N 1021,8 20 0 0,0
22.09.2017 11:00:00 15,0 12,7 15,7 14,8 16,8 8 4 20 11 NNW 1021,8 20 0 0,0
22.09.2017 10:00:00 15,0 13,0 14,3 14,8 16,8 11 6 22 12 N 1021,3 20 7 0,0
22.09.2017 09:00:00 14,5 12,9 13,5 14,8 16,8 11 6 21 12 NW 1021,3 20 0 0,0
22.09.2017 08:00:00 14,4 12,8 13,5 14,8 16,8 8 4 18 10 NNW 1020,6 17 0 0,0
22.09.2017 07:00:00 14,3 12,7 13,5 14,8 16,8 9 5 19 11 N 1020,0 20 0 0,0
22.09.2017 06:00:00 14,3 12,7 11,8 14,9 16,8 10 6 24 13 N 1019,9 20 0 0,0
22.09.2017 05:00:00 13,6 11,3 11,6 15,0 16,8 8 4 18 10 NW 1020,0 20 0 0,0
22.09.2017 04:00:00 13,5 10,1 10,6 15,0 16,8 7 4 16 9 NW 1019,6 20 0 0,0
22.09.2017 03:00:00 13,7 9,7 8,9 15,1 16,8 5 3 14 8 WNW 1019,7 20 0 0,0
22.09.2017 02:00:00 12,7 10,1 8,2 15,1 16,8 4 2 9 5 NNW 1019,4 20 0 0,0
22.09.2017 01:00:00 13,1 10,1 8,0 15,2 16,8 3 2 5 3 SSW 1019,2 20 0 0,0
22.09.2017 00:00:00 13,7 9,7 8,7 15,3 16,9 0 0 6 3 N 1018,9 19 0 0,0
21.09.2017 23:00:00 14,7 9,7 9,4 15,3 16,8 4 2 6 4 S 1018,7 20 0 0,0
21.09.2017 22:00:00 15,7 9,8 9,9 15,4 16,8 5 3 9 5 SE 1018,6 20 0 0,0
21.09.2017 21:00:00 16,2 9,1 10,1 15,4 16,9 6 3 10 5 SE 1018,5 20 0 0,0
21.09.2017 20:00:00 16,8 8,5 10,8 15,3 16,9 4 2 14 8 SSE 1018,1 20 18 0,0
21.09.2017 19:00:00 18,8 8,4 15,1 15,2 16,9 4 2 17 9 S 1017,6 20 43 0,0
21.09.2017 18:00:00 21,0 9,3 19,4 15,1 16,9 8 4 26 14 S 1017,1 20 60 0,0
21.09.2017 17:00:00 19,9 9,7 19,0 15,0 16,9 9 5 26 14 S 1017,2 20 54 0,0
21.09.2017 16:00:00 20,6 9,2 20,0 14,7 16,9 8 4 28 15 S 1017,3 20 60 0,0
21.09.2017 15:00:00 21,0 9,3 24,9 14,6 16,9 11 6 32 17 S 1017,7 19 60 0,0
21.09.2017 14:00:00 19,7 8,7 21,4 14,4 16,9 11 6 29 15 SE 1018,4 20 60 0,0
21.09.2017 13:00:00 18,6 9,4 17,0 14,3 16,9 12 6 26 14 S 1018,9 20 60 0,0
21.09.2017 12:00:00 16,5 9,2 17,2 14,3 16,9 9 5 18 10 S 1019,3 20 60 0,0
21.09.2017 11:00:00 15,7 10,2 11,8 14,3 16,9 6 3 19 10 SSW 1019,6 20 60 0,0
21.09.2017 10:00:00 11,4 8,8 8,7 14,4 16,9 9 5 16 8 SSE 1019,9 20 60 0,0
21.09.2017 09:00:00 9,7 8,6 6,3 14,4 16,9 7 4 13 7 SSE 1019,9 20 60 0,0
21.09.2017 08:00:00 9,1 8,3 4,6 14,5 17,0 6 4 12 6 SSE 1019,8 20 1 0,0
21.09.2017 07:00:00 8,8 7,9 4,6 14,6 17,0 6 4 13 7 SSE 1019,8 20 0 0,0
21.09.2017 06:00:00 9,5 8,6 5,2 14,7 17,0 8 4 14 8 SSE 1019,7 20 0 0,0
21.09.2017 05:00:00 9,7 8,9 5,3 14,7 17,0 8 4 13 7 SSE 1020,0 18 0 0,0
21.09.2017 04:00:00 10,0 9,1 5,4 14,8 17,0 7 4 12 7 S 1020,2 18 0 0,0
21.09.2017 03:00:00 10,3 9,4 5,7 14,9 17,0 7 4 12 6 S 1020,4 18 0 0,0
21.09.2017 02:00:00 10,7 9,6 5,7 15,0 17,0 5 3 12 7 S 1020,6 20 0 0,0
21.09.2017 01:00:00 11,2 9,9 6,2 15,1 17,0 5 3 14 7 S 1020,7 19 0 0,0
21.09.2017 00:00:00 11,4 9,8 6,5 15,1 17,0 8 4 11 6 SSW 1020,7 20 0 0,0
20.09.2017 23:00:00 11,9 9,5 6,9 15,2 17,0 5 3 10 5 S 1020,6 20 0 0,0
20.09.2017 22:00:00 12,7 9,5 7,8 15,2 17,0 4 2 7 4 S 1020,8 20 0 0,0
20.09.2017 21:00:00 13,5 9,3 8,4 15,3 17,0 6 3 10 5 S 1021,1 20 0 0,0
20.09.2017 20:00:00 14,4 9,2 9,9 15,2 17,0 6 3 14 7 SSW 1021,0 18 20 0,0
20.09.2017 19:00:00 16,6 9,0 14,3 15,1 17,0 7 4 21 11 SW 1021,0 20 60 0,0
20.09.2017 18:00:00 18,2 9,3 16,2 15,1 17,0 6 3 21 11 WSW 1021,1 20 20 0,0
20.09.2017 17:00:00 16,8 9,9 16,1 15,0 17,0 10 5 20 11 WSW 1021,5 20 0 0,0
20.09.2017 16:00:00 17,1 9,0 16,2 14,9 17,0 5 3 12 6 SW 1021,8 20 0 0,0
20.09.2017 15:00:00 16,6 9,5 15,9 14,8 17,1 6 3 15 8 W 1022,0 20 0 0,0
20.09.2017 14:00:00 17,2 9,6 18,1 14,6 17,0 4 2 19 11 W 1022,3 20 14 0,0
20.09.2017 13:00:00 17,4 9,8 15,9 14,6 17,0 10 6 23 12 SW 1022,8 20 56 0,0
20.09.2017 12:00:00 15,8 9,9 16,1 14,5 17,1 10 5 22 12 SSW 1023,2 19 60 0,0
20.09.2017 11:00:00 14,8 9,2 10,5 14,6 17,1 6 4 18 10 S 1023,6 20 47 0,0

tt = Température de l'air
td = dewpoint
tt 5cm = Température de l'air 5cm
tt -20cm = Température de l'air -20cm
tt -100cm = Température de l'air -100cm
ff = Vitesse du vent
fx = gusts
dd = Direction du vent
ppp = reduced air pressure
vv = visibility
sd = Ensoleillement
rr = Quantités de précipitations

stations d'obs. à proximité